Weather History for Buffalo, WY

Change the Weather History Date:

Monday, January 28, 2013

  Actual Average Record
Temperature  
Mean Temperature 16 °F 27 °F  
Max Temperature 26 °F 38 °F 53 °F (2011)
Min Temperature 6 °F 17 °F -12 °F (2004)
Degree Days  
Heating Degree Days 49 38  
Month to date heating degree days 1003 1044  
Since 1 July heating degree days 3728 4091  
Cooling Degree Days 0 0  
Month to date cooling degree days 0 0  
Year to date cooling degree days 0 0  
Moisture  
Dew Point 20 °F    
Average Humidity 79    
Maximum Humidity 96    
Minimum Humidity 62    
Precipitation  
Precipitation 0.03 in 0.02 in 0.07 in (2002)
Month to date precipitation 0.29 0.37  
Year to date precipitation 0.29 0.37  
Sea Level Pressure  
Sea Level Pressure 29.79 in    
Wind  
Wind Speed 8 mph (NNW)    
Max Wind Speed 18 mph    
Max Gust Speed 24 mph    
Visibility 7 miles    
Events Snow    
T = Trace of Precipitation, MM = Missing Value Source: NWS Daily Summary

Daily Weather History Graph

Daily Weather History Graph

Search for Another Location

Airport:

Trip Planner

Search our weather history database for the weather conditions in past years. The results will help you decide how hot, cold, wet, or windy it might be!

Date:

Astronomy

Jan. 28, 2013 Rise Set
Actual Time 7:29 AM MST 5:11 PM MST
Civil Twilight 6:57 AM MST 5:42 PM MST
Nautical Twilight 6:22 AM MST 6:17 PM MST
Astronomical Twilight 5:48 AM MST 6:51 PM MST
Moon 7:15 PM MST (1/28) 7:50 AM MST (1/28)
Length of Visible Light 10h 44m
Length of Day
9h 42m
Full, 97% of the Moon is Illuminated
Jan 28
Full
Feb 3
Last Quarter
Feb 10
New
Feb 17
First Quarter
Feb 25
Full

Hourly Weather History & Observations

Time (MST) Temp. Windchill Dew Point Humidity Pressure Visibility Wind Dir Wind Speed Gust Speed Precip Events Conditions
12:03 AM 26.6 °F 17.5 °F 24.8 °F 93% 29.75 in 5.0 mi North 9.2 mph - 0.00 in Snow Light Snow
12:12 AM 26.6 °F 18.2 °F 24.8 °F 93% 29.74 in 3.0 mi North 8.1 mph - 0.00 in Snow Light Snow
12:21 AM 26.6 °F 18.2 °F 24.8 °F 93% 29.75 in 2.5 mi North 8.1 mph - 0.00 in Snow Light Snow
12:36 AM 26.6 °F 18.2 °F 24.8 °F 93% 29.75 in 1.8 mi North 8.1 mph - 0.01 in Snow Light Snow
12:48 AM 26.6 °F 18.2 °F 24.8 °F 93% 29.75 in 3.0 mi North 8.1 mph - 0.01 in Snow Light Snow
12:49 AM 26.1 °F 16.8 °F 24.1 °F 92% 29.81 in 3.0 mi North 9.2 mph - 0.01 in Snow Light Snow
1:06 AM 26.6 °F 18.2 °F 24.8 °F 93% 29.74 in 9.0 mi North 8.1 mph - 0.00 in   Overcast
1:53 AM 25.0 °F 17.1 °F 23.0 °F 92% 29.81 in 5.0 mi North 6.9 mph - 0.00 in Snow Light Snow
2:05 AM 24.8 °F 19.1 °F 23.0 °F 93% 29.75 in 5.0 mi North 4.6 mph - 0.00 in Snow Light Snow
2:17 AM 24.8 °F 19.1 °F 23.0 °F 93% 29.75 in 3.0 mi North 4.6 mph - 0.00 in Snow Light Snow
2:22 AM 24.8 °F 19.1 °F 23.0 °F 93% 29.75 in 1.8 mi North 4.6 mph - 0.00 in Snow Light Snow
2:37 AM 24.8 °F 17.9 °F 23.0 °F 93% 29.76 in 3.0 mi North 5.8 mph - 0.00 in Snow Light Snow
2:43 AM 24.8 °F 19.1 °F 23.0 °F 93% 29.76 in 1.8 mi North 4.6 mph - 0.00 in Snow Light Snow
2:53 AM 25.0 °F 18.1 °F 23.0 °F 92% 29.83 in 2.5 mi North 5.8 mph - 0.00 in Snow Light Snow
3:00 AM 24.8 °F 20.5 °F 23.0 °F 93% 29.76 in 3.0 mi North 3.5 mph - 0.00 in Snow Light Snow
3:08 AM 24.8 °F 20.5 °F 23.0 °F 93% 29.75 in 2.5 mi North 3.5 mph - 0.01 in Snow Light Snow
3:35 AM 24.8 °F 20.5 °F 23.0 °F 93% 29.75 in 1.8 mi NNW 3.5 mph - 0.01 in Snow Light Snow
3:40 AM 24.8 °F 20.5 °F 23.0 °F 93% 29.75 in 2.0 mi NNW 3.5 mph - 0.01 in Snow Light Snow
3:49 AM 24.8 °F 17.9 °F 23.0 °F 93% 29.75 in 1.8 mi NW 5.8 mph - 0.01 in Snow Light Snow
3:53 AM 25.0 °F 17.1 °F 23.0 °F 92% 29.83 in 1.8 mi NNW 6.9 mph - 0.01 in Snow Light Snow
3:57 AM 24.8 °F 15.3 °F 23.0 °F 93% 29.76 in 3.0 mi NNW 9.2 mph - 0.00 in Snow Light Snow
4:20 AM 24.8 °F 16.1 °F 21.2 °F 86% 29.75 in 10.0 mi NNW 8.1 mph - 0.00 in   Overcast
4:53 AM 24.1 °F 14.4 °F 21.0 °F 88% 29.84 in 2.0 mi NNW 9.2 mph - 0.00 in Snow Light Snow
5:00 AM 24.8 °F 14.0 °F 21.2 °F 86% 29.75 in 1.8 mi NNW 11.5 mph - 0.00 in Snow Light Snow
5:12 AM 23.0 °F 13.1 °F 21.2 °F 93% 29.75 in 1.8 mi North 9.2 mph - 0.01 in Snow Light Snow
5:23 AM 23.0 °F 13.1 °F 21.2 °F 93% 29.75 in 2.5 mi NNW 9.2 mph - 0.01 in Snow Light Snow
5:30 AM 23.0 °F 12.4 °F 21.2 °F 93% 29.75 in 4.0 mi NNW 10.4 mph - 0.01 in Snow Light Snow
5:45 AM 23.0 °F 14.7 °F 21.2 °F 93% 29.75 in 5.0 mi NNW 6.9 mph - 0.01 in Snow Light Snow
5:53 AM 23.0 °F 14.7 °F 21.0 °F 92% 29.84 in 6.0 mi NW 6.9 mph - 0.01 in Snow Light Snow
5:59 AM 23.0 °F 13.1 °F 19.4 °F 86% 29.75 in 7.0 mi NW 9.2 mph - 0.00 in Snow Light Snow
6:46 AM 23.0 °F 13.9 °F 19.4 °F 86% 29.76 in 10.0 mi NW 8.1 mph - 0.00 in   Overcast
6:53 AM 23.0 °F 13.9 °F 19.9 °F 88% 29.86 in 10.0 mi NW 8.1 mph - 0.00 in   Overcast
7:53 AM 21.9 °F 12.5 °F 19.0 °F 89% 29.85 in 10.0 mi NW 8.1 mph - 0.00 in   Overcast
8:53 AM 21.0 °F 13.4 °F 18.0 °F 88% 29.86 in 10.0 mi NW 5.8 mph - N/A   Mostly Cloudy
9:10 AM 21.2 °F 14.9 °F 19.4 °F 93% 29.76 in 10.0 mi WNW 4.6 mph - N/A   Mostly Cloudy
9:28 AM 23.0 °F 18.4 °F 19.4 °F 86% 29.76 in 10.0 mi WNW 3.5 mph - N/A   Overcast
9:40 AM 23.0 °F 15.8 °F 19.4 °F 86% 29.75 in 10.0 mi NNW 5.8 mph - N/A   Overcast
9:53 AM 23.0 °F 15.8 °F 19.9 °F 88% 29.86 in 10.0 mi NW 5.8 mph - N/A   Overcast
10:06 AM 23.0 °F 17.0 °F 19.4 °F 86% 29.77 in 10.0 mi NW 4.6 mph - N/A   Overcast
10:53 AM 24.1 °F 17.0 °F 19.0 °F 81% 29.87 in 10.0 mi North 5.8 mph - N/A   Overcast
11:05 AM 24.8 °F 16.9 °F 19.4 °F 80% 29.77 in 10.0 mi NNW 6.9 mph - N/A   Overcast
11:13 AM 24.8 °F 16.1 °F 19.4 °F 80% 29.77 in 10.0 mi NNW 8.1 mph - N/A   Overcast
11:26 AM 24.8 °F 16.1 °F 19.4 °F 80% 29.76 in 10.0 mi North 8.1 mph - N/A   Overcast
11:42 AM 24.8 °F 15.3 °F 21.2 °F 86% 29.76 in 10.0 mi North 9.2 mph - N/A   Overcast
11:53 AM 25.0 °F 16.3 °F 21.0 °F 85% 29.86 in 10.0 mi NNW 8.1 mph - N/A   Mostly Cloudy
12:53 PM 26.1 °F 14.0 °F 19.9 °F 78% 29.84 in 10.0 mi NNW 15.0 mph 24.2 mph N/A   Overcast
1:53 PM 26.1 °F 15.0 °F 19.9 °F 78% 29.81 in 10.0 mi NNW 12.7 mph 20.7 mph N/A   Overcast
2:53 PM 25.0 °F 13.6 °F 19.9 °F 81% 29.83 in 10.0 mi North 12.7 mph 24.2 mph N/A   Overcast
3:34 PM 24.8 °F 12.9 °F 19.4 °F 80% 29.74 in 10.0 mi NNW 13.8 mph 23.0 mph N/A   Overcast
3:53 PM 23.0 °F 11.7 °F 19.0 °F 85% 29.84 in 10.0 mi NNW 11.5 mph - N/A   Overcast
4:53 PM 23.0 °F 11.7 °F 12.9 °F 65% 29.85 in 10.0 mi NNW 11.5 mph - N/A   Unknown
5:53 PM 21.0 °F 13.4 °F 12.0 °F 68% 29.87 in 10.0 mi WNW 5.8 mph - N/A   Partly Cloudy
6:53 PM 21.0 °F - 12.0 °F 68% 29.86 in 10.0 mi Calm Calm - N/A   Mostly Cloudy
7:53 PM 16.0 °F 6.3 °F 8.1 °F 71% 29.87 in 10.0 mi WSW 6.9 mph - N/A   Clear
8:53 PM 14.0 °F 3.9 °F 6.1 °F 71% 29.86 in 10.0 mi WSW 6.9 mph - N/A   Clear
9:53 PM 12.9 °F 6.9 °F 5.0 °F 71% 29.85 in 10.0 mi WSW 3.5 mph - N/A   Clear
10:53 PM 19.0 °F 12.3 °F 8.1 °F 62% 29.81 in 10.0 mi WSW 4.6 mph - N/A   Scattered Clouds
11:53 PM 18.0 °F 9.8 °F 6.1 °F 60% 29.81 in 10.0 mi WSW 5.8 mph - N/A   Partly Cloudy